Location: Staunton
(38.1490°N, 79.0720°W)
Time: 23:14:26
(UTC-05:00)

ISS - Pass Details

Date: 09 November 2018
Orbit: 402 x 408 km, 51.6° (Epoch: 17 November)

Event Time Altitude Azimuth Distance (km) Brightness Sun altitude
Exits shadow 05:26:11 10° 353° (N) 1,456 -1.2 -16.9°
Maximum altitude 05:27:33 12° 18° (NNE) 1,340 -1.1 -16.6°
Drops below altitude 10° 05:28:56 10° 43° (NE) 1,462 -0.6 -16.4°
Sets 05:32:05 0° 76° (ENE) 2,322 1.3 -15.8°
